Theta_e
332 332 330 328 330 338 335 334 330 329 328 324 323 322 321 320 316 312 318 327 327 317 318 329 330 329 329 324 318 315 313 315 323
326 329 329 324 328 334 337 334 330 329 329 326 325 324 322 322 319 315 315 321 320 314 314 326 330 328 326 327 319 314 313 315 318
331 331 328 326 328 333 332 335 333 330 329 328 327 326 324 322 322 320 318 316 322 313 312 323 327 327 325 325 328 319 315 323 323
334 334 331 328 326 333 334 333 333 332 330 329 328 328 327 325 324 322 316 321 326 320 313 316 325 325 325 325 325 329 319 323 322
333 333 332 330 328 328 334 335 334 333 330 330 329 329 329 327 326 324 323 319 327 325 322 316 316 319 320 324 323 325 326 323 327
333 333 333 332 329 327 331 335 335 333 332 330 330 329 329 328 327 327 325 322 318 328 322 329 330 324 322 319 322 322 325 326 322
333 333 333 333 331 328 327 331 335 334 332 332 330 329 328 328 327 328 327 325 316 322 324 322 329 330 325 325 321 320 321 324 325
334 334 334 333 333 331 328 327 331 332 330 329 332 330 328 327 325 327 327 326 319 321 325 320 323 328 328 326 324 320 319 319 322
331 332 333 334 333 333 332 329 327 329 330 328 330 331 329 328 324 326 327 327 325 321 323 325 322 323 330 327 326 323 319 317 319
323 325 329 332 332 332 332 333 329 328 328 328 328 330 330 328 325 326 327 328 328 325 321 324 326 323 323 329 326 325 321 318 315
306 312 320 326 330 330 330 331 332 328 327 328 329 330 331 330 326 326 327 328 328 328 326 322 322 327 325 323 327 326 323 320 315
299 300 303 310 320 325 328 329 330 330 329 326 328 330 331 331 329 327 327 328 328 328 327 327 322 325 327 324 323 324 323 322 317
298 298 299 299 302 309 318 323 325 327 328 328 327 328 332 332 332 329 327 327 328 328 328 328 323 325 328 327 326 322 324 323 320
297 297 297 298 298 299 300 306 314 321 324 326 326 327 328 330 331 332 330 328 328 329 329 328 327 321 327 327 327 325 321 323 321
295 295 296 296 297 297 298 298 298 303 312 320 323 326 327 329 330 330 331 331 330 329 329 329 328 328 323 325 325 326 322 323 322
293 294 294 295 296 296 296 297 297 297 297 299 305 317 324 326 327 327 330 331 329 331 330 329 329 328 328 323 323 324 321 325 324
292 292 293 294 294 295 295 296 296 296 297 297 297 299 304 315 322 324 327 327 329 329 329 330 329 329 329 327 324 322 321 321 327
290 291 292 292 293 294 294 295 295 296 296 296 296 298 307 312 318 322 325 328 329 329 329 329 330 329 328 328 327 323 321 318 326
289 289 290 291 292 293 293 294 294 295 295 295 295 294 294 298 310 318 324 327 328 328 329 329 330 330 328 328 328 327 323 319 318
288 288 289 290 291 291 292 293 293 294 294 294 294 293 293 293 293 295 308 320 322 323 327 326 327 328 328 328 327 328 326 323 318
Wind_Speed
12 10 9 9 10 9 9 9 9 7 7 9 11 13 14 14 13 7 8 10 8 9 9 12 13 14 14 14 12 10 9 10 12
11 11 10 10 10 10 9 7 7 7 6 6 8 11 13 12 13 11 7 5 8 9 10 10 11 11 12 13 14 13 12 13 12
11 10 9 10 11 11 11 8 5 6 6 4 4 6 9 11 12 12 10 5 9 9 10 11 10 11 11 12 14 15 14 14 13
12 10 10 10 11 12 12 11 7 5 7 5 2 1 4 7 10 13 13 9 9 9 9 11 9 8 9 10 12 13 14 13 13
13 13 11 11 11 12 13 12 12 8 7 7 4 4 3 1 5 8 9 6 4 7 9 9 8 6 6 6 8 11 12 12 12
16 14 12 12 11 12 12 13 13 12 10 9 9 7 5 5 2 3 7 8 1 3 5 6 7 5 5 5 5 7 9 10 10
17 16 15 14 13 13 15 14 15 15 14 12 11 10 8 7 6 3 3 8 3 3 2 5 5 5 4 4 3 3 5 7 8
16 17 17 17 17 16 16 18 17 17 16 15 14 13 12 9 6 6 4 6 4 4 2 3 5 5 5 3 3 2 3 3 5
17 17 18 21 21 20 19 19 20 20 19 18 17 16 15 12 9 7 6 5 4 6 4 5 5 6 6 4 1 2 1 4 5
17 17 17 18 21 22 21 21 20 21 21 20 19 19 18 17 14 11 8 6 6 5 7 9 9 8 8 7 6 3 3 2 6
18 18 18 19 19 21 21 23 23 22 23 23 21 21 21 20 19 15 13 10 8 6 6 8 11 11 10 10 9 7 4 4 6
16 18 19 21 21 21 21 23 24 25 24 24 24 23 24 23 22 20 17 14 13 10 8 7 11 14 13 11 13 12 8 5 6
15 15 17 18 20 22 23 22 22 23 26 26 25 26 24 23 24 24 22 19 17 15 13 11 9 14 15 13 13 15 12 8 6
13 14 15 16 17 19 20 22 23 24 26 26 27 29 27 26 26 25 25 24 20 19 16 14 13 15 16 17 17 15 16 12 9
12 13 14 14 15 16 17 18 20 22 24 27 30 28 29 31 28 28 27 26 24 24 21 20 18 16 19 19 20 18 16 15 10
12 12 12 13 13 14 15 15 16 18 20 22 25 29 33 29 30 31 30 28 29 25 27 24 23 21 19 20 23 22 17 19 16
12 12 12 12 12 13 13 13 13 14 15 14 16 12 18 29 34 31 32 33 30 29 28 28 26 27 25 23 22 23 21 22 22
12 12 12 13 13 13 13 12 12 12 12 12 9 5 6 6 19 32 32 31 31 34 31 31 31 31 31 28 25 25 23 24 26
12 12 12 12 12 12 12 12 12 12 11 12 12 13 16 8 6 14 18 23 26 27 32 34 35 35 36 35 30 28 27 24 30
12 13 13 13 13 13 13 12 12 12 12 12 12 13 14 15 15 23 23 20 22 26 30 36 38 37 36 39 36 33 31 30 29
Wind_Direction
168 164 177 163 154 160 158 147 138 128 101 84 79 73 68 61 69 81 119 104 91 115 110 88 84 82 75 70 72 72 73 71 72
181 178 172 175 166 164 171 165 151 156 136 108 83 75 67 59 52 67 69 121 99 110 124 104 89 84 79 72 70 70 72 73 67
196 195 185 181 176 177 175 181 184 177 171 145 95 86 77 60 53 48 37 103 94 96 126 124 96 84 77 72 73 74 74 77 75
205 204 204 195 194 189 183 181 190 191 194 180 149 84 82 66 54 50 56 96 98 95 111 133 118 97 77 74 76 76 78 79 72
212 211 204 207 202 203 194 191 183 187 202 205 208 237 241 64 55 56 50 70 86 108 123 123 128 110 98 84 74 81 78 84 78
215 217 215 214 210 201 210 201 198 189 196 207 221 236 250 265 292 40 26 39 185 148 123 143 143 118 91 90 89 85 86 83 86
222 221 219 218 218 213 206 212 210 208 208 204 223 238 243 249 280 299 356 7 350 192 158 174 155 150 129 80 81 105 102 93 84
223 225 222 224 225 220 216 217 221 221 219 220 215 225 238 248 264 283 303 349 8 210 209 214 206 181 178 124 48 100 139 137 115
224 225 224 223 229 233 228 223 224 226 225 223 224 223 227 235 250 269 279 316 358 259 254 249 249 230 206 212 238 279 191 178 169
227 228 227 226 229 233 236 233 230 229 229 225 226 228 227 228 230 241 246 265 300 320 272 264 257 252 244 237 250 292 258 242 201
230 232 233 232 234 236 239 244 240 236 233 231 230 231 230 229 232 233 239 243 252 279 306 264 263 260 259 255 254 255 284 245 235
236 235 236 237 237 237 238 239 243 244 242 238 237 235 231 229 235 232 237 242 250 254 267 288 270 256 261 268 261 258 262 259 246
241 242 240 239 238 239 240 239 240 243 247 246 238 241 237 236 233 238 237 238 248 255 261 273 281 260 257 268 274 268 251 253 254
246 246 247 246 246 244 243 243 244 244 244 248 250 244 244 244 243 241 244 243 240 250 256 262 273 257 256 264 269 286 252 247 256
244 247 250 254 255 254 252 249 250 250 249 248 246 246 245 245 246 246 249 247 250 246 251 257 259 268 261 258 263 267 274 241 243
250 250 251 253 257 259 260 261 261 262 263 262 258 251 244 247 250 250 251 248 251 254 253 252 258 261 265 264 257 264 275 255 245
255 256 258 259 261 262 262 262 263 268 271 275 282 281 260 244 240 249 250 251 250 250 254 255 254 260 262 263 266 263 263 259 251
257 255 255 258 259 262 266 269 267 269 276 279 262 275 243 256 236 236 244 247 249 250 250 253 257 256 259 259 261 264 266 254 251
266 266 263 260 259 260 263 265 267 268 270 271 271 261 264 271 267 231 237 243 246 252 248 251 253 253 253 256 257 261 263 260 245
263 264 264 265 266 266 266 268 270 269 269 267 265 267 271 273 268 273 244 239 243 243 246 252 252 252 252 257 255 259 259 263 253